| time (UTC) | temp C | wind direction | speed KPH | gust KPH | rain 1hr cm | rain 24hr cm | rain mn cm | humidity % | barometer mb |
| 20260505014016 | 16 | 203 | 4.8 | 12.9 | 0.00 | 0.00 | 0.00 | 50 | 1009.4 |
| 20260505013016 | 16 | 225 | 6.4 | 16.1 | 0.00 | 0.00 | 0.00 | 49 | 1009.2 |
| 20260505012017 | 16 | 225 | 6.4 | 14.5 | 0.00 | 0.00 | 0.00 | 49 | 1009.1 |
| 20260505011016 | 16 | 203 | 6.4 | 19.3 | 0.00 | 0.00 | 0.00 | 48 | 1008.9 |
| 20260505010016 | 17 | 225 | 8.0 | 22.5 | 0.00 | 0.00 | 0.00 | 47 | 1008.8 |
| 20260505005016 | 17 | 225 | 6.4 | 20.9 | 0.00 | 0.00 | 0.00 | 47 | 1008.6 |
| 20260505004016 | 17 | 203 | 6.4 | 19.3 | 0.00 | 0.00 | 0.00 | 46 | 1008.3 |
| 20260505003016 | 17 | 225 | 9.7 | 25.7 | 0.00 | 0.00 | 0.00 | 46 | 1008.0 |
| 20260505002016 | 17 | 203 | 9.7 | 32.2 | 0.00 | 0.00 | 0.00 | 45 | 1007.9 |
| 20260505001016 | 18 | 203 | 8.0 | 17.7 | 0.00 | 0.00 | 0.00 | 44 | 1007.7 |
| 20260505000016 | 18 | 203 | 8.0 | 29.0 | 0.00 | 0.00 | 0.00 | 43 | 1007.4 |
| 20260504235016 | 18 | 203 | 6.4 | 20.9 | 0.00 | 0.00 | 0.00 | 41 | 1007.2 |
| 20260504234016 | 19 | 203 | 8.0 | 20.9 | 0.00 | 0.00 | 0.00 | 40 | 1006.9 |
| 20260504233036 | 20 | 203 | 9.7 | 22.5 | 0.00 | 0.00 | 0.00 | 37 | 1006.8 |
| 20260504232036 | 21 | 225 | 4.8 | 14.5 | 0.00 | 0.00 | 0.00 | 33 | 1006.5 |
| 20260504231015 | 21 | 248 | 4.8 | 12.9 | 0.00 | 0.00 | 0.00 | 33 | 1006.2 |
| 20260504230016 | 21 | 248 | 4.8 | 14.5 | 0.00 | 0.00 | 0.00 | 32 | 1006.2 |
| 20260504225036 | 21 | 225 | 4.8 | 14.5 | 0.00 | 0.00 | 0.00 | 32 | 1006.1 |
| 20260504224016 | 21 | 225 | 8.0 | 16.1 | 0.00 | 0.00 | 0.00 | 31 | 1006.0 |
| 20260504223016 | 21 | 270 | 6.4 | 14.5 | 0.00 | 0.00 | 0.00 | 31 | 1006.0 |
| 20260504222016 | 21 | 225 | 4.8 | 14.5 | 0.00 | 0.00 | 0.00 | 32 | 1005.9 |
| 20260504221017 | 21 | 225 | 6.4 | 16.1 | 0.00 | 0.00 | 0.00 | 31 | 1006.0 |
| 20260504220016 | 21 | 248 | 8.0 | 19.3 | 0.00 | 0.00 | 0.00 | 31 | 1006.0 |
| 20260504215035 | 21 | 203 | 6.4 | 19.3 | 0.00 | 0.00 | 0.00 | 32 | 1006.1 |
| 20260504214036 | 21 | 225 | 8.0 | 17.7 | 0.00 | 0.00 | 0.00 | 31 | 1006.1 |
| 20260504213016 | 21 | 225 | 8.0 | 22.5 | 0.00 | 0.00 | 0.00 | 31 | 1006.0 |
| 20260504212016 | 21 | 270 | 6.4 | 17.7 | 0.00 | 0.00 | 0.00 | 30 | 1006.0 |
| 20260504211016 | 22 | 248 | 6.4 | 20.9 | 0.00 | 0.00 | 0.00 | 31 | 1006.0 |
| 20260504210035 | 22 | 225 | 6.4 | 22.5 | 0.00 | 0.00 | 0.00 | 29 | 1005.9 |
| 20260504205016 | 22 | 225 | 6.4 | 25.7 | 0.00 | 0.00 | 0.00 | 30 | 1006.1 |
| 20260504204015 | 22 | 248 | 8.0 | 25.7 | 0.00 | 0.00 | 0.00 | 30 | 1006.0 |
| 20260504203016 | 22 | 248 | 6.4 | 14.5 | 0.00 | 0.00 | 0.00 | 30 | 1006.1 |
| 20260504202015 | 22 | 248 | 8.0 | 17.7 | 0.00 | 0.00 | 0.00 | 29 | 1006.0 |
| 20260504201015 | 22 | 248 | 4.8 | 14.5 | 0.00 | 0.00 | 0.00 | 30 | 1006.0 |
| 20260504200036 | 22 | 225 | 8.0 | 17.7 | 0.00 | 0.00 | 0.00 | 29 | 1006.1 |
| 20260504195015 | 22 | 248 | 8.0 | 22.5 | 0.00 | 0.00 | 0.00 | 28 | 1006.2 |
| 20260504194015 | 22 | 225 | 9.7 | 25.7 | 0.00 | 0.00 | 0.00 | 27 | 1006.2 |
| 20260504193016 | 22 | 248 | 8.0 | 24.1 | 0.00 | 0.00 | 0.00 | 28 | 1006.1 |
| 20260504192015 | 22 | 248 | 9.7 | 24.1 | 0.00 | 0.00 | 0.00 | 27 | 1006.2 |
| 20260504191015 | 22 | 248 | 9.7 | 27.4 | 0.00 | 0.00 | 0.00 | 28 | 1006.4 |
| 20260504190015 | 21 | 225 | 9.7 | 24.1 | 0.00 | 0.00 | 0.00 | 29 | 1006.5 |
| 20260504185015 | 21 | 225 | 11.3 | 27.4 | 0.00 | 0.00 | 0.00 | 27 | 1006.6 |
| 20260504184035 | 22 | 248 | 9.7 | 24.1 | 0.00 | 0.00 | 0.00 | 28 | 1006.7 |
| 20260504183017 | 22 | 225 | 8.0 | 24.1 | 0.00 | 0.00 | 0.00 | 28 | 1006.8 |
| 20260504182015 | 22 | 248 | 9.7 | 30.6 | 0.00 | 0.00 | 0.00 | 28 | 1006.8 |
| 20260504181017 | 22 | 225 | 6.4 | 16.1 | 0.00 | 0.00 | 0.00 | 29 | 1006.8 |
| 20260504180017 | 21 | 225 | 11.3 | 30.6 | 0.00 | 0.00 | 0.00 | 29 | 1006.9 |
| 20260504175017 | 21 | 225 | 9.7 | 22.5 | 0.00 | 0.00 | 0.00 | 29 | 1006.9 |
| 20260504174017 | 21 | 248 | 9.7 | 25.7 | 0.00 | 0.00 | 0.00 | 30 | 1007.1 |
| 20260504173017 | 21 | 248 | 9.7 | 20.9 | 0.00 | 0.00 | 0.00 | 30 | 1007.1 |
| 20260504172037 | 20 | 248 | 11.3 | 25.7 | 0.00 | 0.00 | 0.00 | 30 | 1007.2 |
| 20260504171017 | 20 | 225 | 12.9 | 35.4 | 0.00 | 0.00 | 0.00 | 30 | 1007.2 |
| 20260504151017 | 18 | 248 | 8.0 | 20.9 | 0.00 | 0.00 | 0.00 | 36 | 1008.6 |
| 20260504141017 | 17 | 225 | 6.4 | 16.1 | 0.00 | 0.00 | 0.00 | 41 | 1009.1 |
| 20260504081016 | 7 | 180 | 1.6 | 4.8 | 0.00 | 0.03 | 0.00 | 61 | 1010.1 |
| 20260504050016 | 3 | 0.0 | 3.2 | 0.00 | 0.03 | 0.00 | 70 | 1010.0 | |
| 20260504045016 | 3 | 0.0 | 1.6 | 0.00 | 0.03 | 0.00 | 70 | 1009.9 | |
| 20260504044036 | 3 | 0.0 | 0.0 | 0.00 | 0.03 | 0.00 | 69 | 1010.0 | |
| 20260504043016 | 3 | 0.0 | 0.0 | 0.00 | 0.03 | 0.00 | 68 | 1010.0 | |
| 20260504042016 | 3 | 0.0 | 0.0 | 0.00 | 0.03 | 0.00 | 68 | 1010.0 | |
| 20260504041016 | 3 | 0.0 | 0.0 | 0.00 | 0.03 | 0.00 | 67 | 1009.9 | |
| 20260504040016 | 3 | 0.0 | 0.0 | 0.00 | 0.03 | 0.03 | 67 | 1009.8 | |
| 20260504035017 | 4 | 0.0 | 0.0 | 0.00 | 0.03 | 0.03 | 67 | 1009.7 | |
| 20260504034036 | 4 | 0.0 | 0.0 | 0.00 | 0.03 | 0.03 | 66 | 1009.7 | |
| 20260504033016 | 4 | 0.0 | 1.6 | 0.00 | 0.03 | 0.03 | 65 | 1009.6 | |
| 20260504032016 | 5 | 315 | 1.6 | 3.2 | 0.00 | 0.03 | 0.03 | 64 | 1009.6 |
| 20260504031016 | 5 | 0.0 | 0.0 | 0.00 | 0.03 | 0.03 | 61 | 1009.6 | |
| 20260504030016 | 5 | 0.0 | 0.0 | 0.00 | 0.03 | 0.03 | 60 | 1009.6 | |
| 20260504025036 | 5 | 0.0 | 0.0 | 0.00 | 0.03 | 0.03 | 60 | 1009.5 | |
| 20260504024016 | 5 | 0.0 | 0.0 | 0.00 | 0.03 | 0.03 | 59 | 1009.4 | |
| 20260504023016 | 6 | 0.0 | 0.0 | 0.00 | 0.03 | 0.03 | 59 | 1009.5 | |
| 20260504022036 | 6 | 0.0 | 1.6 | 0.00 | 0.03 | 0.03 | 59 | 1009.5 | |
| 20260504021016 | 6 | 0.0 | 0.0 | 0.00 | 0.03 | 0.03 | 56 | 1009.4 | |
| 20260504020016 | 6 | 0.0 | 3.2 | 0.00 | 0.03 | 0.03 | 56 | 1009.3 | |
| 20260504015016 | 6 | 0.0 | 3.2 | 0.00 | 0.03 | 0.03 | 56 | 1009.4 |